User: anonymous   Login
Location: Asheville, NC
(35.6000°N, 82.5500°W)
Time: 00:23:48
(UTC-04:00)
Language:

SEEDS - Orbit

View from above orbital plane
View from above orbital plane
View from above satellite
View from above satellite

Ground track
Ground track

The orbit data is extracted from the following two-line orbital elements,

1 32791U 08021J   18171.76172053  .00000212  00000-0  27075-4 0  9992
2 32791  97.5356 189.1365 0013700  13.9372 346.2222 14.90567945550043
Epoch (UTC): 20 June 2018 18:16:52
Eccentricity: 0.0013700
inclination: 97.5356°
perigee height: 586 km
apogee height: 606 km
right ascension of ascending node: 189.1365°
argument of perigee: 13.9372°
revolutions per day: 14.90567945
mean anomaly at epoch: 346.2222°
orbit number at epoch: 55004

The dashed part of the orbit path shows where the satellite is in the earth's shadow,  

DLR